Temp
23 23 23 23 23 23 23 23 23 23 23 23 23 23 23 23 23 23 23 23 23 23 23 23 23 23 23 23 23 23 23 23 23 23 23 23 23 23 22 22 22 22 21 21 21 21 21 21 21 21 21 21 21 21 21 21 21 21 21 21 21 21 21 21 21 21 20 20 20 20 19 19 19 19 19 19 19 20 20 20 20 20 20 20 20
23 23 23 23 23 23 23 23 23 23 23 23 23 23 23 23 23 23 23 23 23 23 23 23 23 23 23 24 24 23 23 23 23 23 23 23 23 23 22 22 22 21 21 21 21 21 21 21 21 21 21 21 21 21 21 21 20 20 21 21 21 21 21 21 21 21 21 20 20 20 20 20 20 19 19 19 19 19 19 19 20 20 20 20 20
23 23 23 23 23 23 23 23 23 23 23 23 23 23 23 23 23 23 23 23 23 23 23 23 23 23 24 24 24 24 23 23 23 23 23 23 23 23 22 22 22 21 21 21 21 21 20 20 21 21 21 21 21 21 21 21 20 20 20 20 21 21 21 21 21 21 21 21 20 20 20 20 20 20 20 20 20 20 20 20 20 20 20 20 20
23 23 23 23 23 23 23 23 24 23 23 23 23 23 23 23 23 23 23 23 23 23 23 23 23 24 24 24 24 24 24 24 23 23 23 23 23 23 23 22 22 22 21 21 21 21 20 20 21 20 20 20 20 20 20 20 20 20 20 20 20 21 21 21 21 21 21 21 21 20 20 20 20 20 20 20 20 20 20 20 20 20 20 20 20
23 23 23 23 23 24 23 23 24 24 23 23 23 23 23 23 23 23 23 23 23 23 23 23 23 24 24 24 24 24 24 24 24 24 23 23 23 23 23 22 22 22 22 21 21 21 20 20 20 20 20 20 20 20 20 20 20 20 20 20 20 20 20 20 21 21 21 21 21 21 21 20 20 20 20 20 20 20 20 20 20 20 20 20 20
23 23 23 24 24 24 24 24 24 23 23 23 23 23 23 23 23 23 23 23 23 23 23 23 23 23 23 23 24 24 24 24 24 24 23 23 23 23 23 22 22 22 22 22 21 21 21 20 20 20 20 21 21 20 20 20 20 20 20 20 20 20 20 20 20 20 20 20 20 20 20 20 20 20 20 20 20 20 20 20 20 20 20 20 20
23 23 24 24 24 24 24 24 24 23 23 23 23 23 23 23 23 23 23 23 23 23 23 23 24 24 23 23 24 24 24 24 24 24 23 23 23 23 23 22 22 22 22 22 21 21 21 20 21 21 21 21 21 21 20 20 20 21 20 20 20 20 20 20 20 20 20 20 20 20 20 20 20 20 20 20 20 20 20 20 20 20 20 20 20
24 23 24 24 24 24 24 24 24 24 23 23 23 23 23 23 23 23 23 23 23 23 23 23 23 24 23 23 24 24 24 24 23 23 23 23 23 22 22 23 22 22 22 22 22 21 21 21 21 21 21 20 20 20 20 20 20 21 21 20 20 20 20 20 20 20 20 20 20 20 20 19 20 20 20 20 20 20 20 20 20 20 20 20 20
24 24 24 24 24 24 24 24 23 23 23 23 23 23 23 23 23 23 23 23 23 23 23 23 23 24 23 23 23 24 23 23 23 23 23 23 23 22 22 23 22 22 22 22 22 21 21 21 21 21 21 20 20 20 20 20 20 20 20 21 20 20 20 20 20 20 20 20 20 20 20 19 20 20 20 20 20 20 20 20 20 20 20 20 20
24 24 24 24 24 24 24 24 23 23 23 23 23 23 23 23 23 23 23 23 23 23 23 23 23 23 23 23 23 23 23 23 23 23 23 23 23 23 22 22 22 22 22 22 22 21 21 21 21 21 21 21 20 20 20 20 20 20 20 20 20 20 20 20 19 19 19 19 20 20 20 20 20 20 20 20 20 21 20 20 20 20 20 20 20
24 24 24 24 24 24 24 24 23 23 23 23 23 23 23 23 23 23 22 22 22 23 23 22 23 23 24 24 24 23 23 23 22 23 23 23 23 23 23 22 22 22 22 22 22 22 22 21 21 21 21 21 21 20 20 20 20 20 20 20 20 20 20 20 19 19 19 19 19 19 20 20 20 20 20 20 20 20 20 20 20 20 20 20 20
24 24 24 24 24 24 24 23 23 23 23 23 23 23 23 23 23 22 22 22 22 23 22 22 22 23 23 23 23 23 23 22 22 23 23 23 23 23 23 23 23 23 22 22 22 22 22 22 21 21 21 21 21 21 20 20 20 20 20 20 19 20 20 20 20 19 19 19 19 19 19 19 19 20 20 20 20 20 20 20 20 20 20 20 20
24 24 24 24 24 24 24 23 23 24 23 23 23 23 23 23 22 22 22 22 23 23 22 22 22 22 23 23 23 23 22 22 22 23 23 22 23 23 23 23 23 23 22 22 22 22 22 21 21 21 21 21 21 21 20 20 21 20 20 20 20 20 20 20 20 19 19 19 19 20 19 19 19 19 20 20 20 20 20 20 20 20 20 20 20
24 24 24 24 24 23 23 23 23 23 23 23 23 23 23 22 22 22 22 22 23 22 22 22 22 22 22 22 22 22 22 22 22 23 23 22 23 23 23 23 23 23 22 22 22 22 21 21 21 21 21 21 21 21 21 20 21 20 20 20 20 20 20 20 20 19 19 19 20 20 19 19 19 19 19 20 20 20 20 20 20 20 20 20 20
25 24 24 24 24 23 23 23 23 23 23 23 23 23 22 22 22 22 22 22 23 22 22 22 22 22 22 22 22 22 22 22 22 22 22 22 22 23 23 23 23 22 22 22 23 22 21 21 21 21 21 21 21 21 21 21 20 20 20 20 20 20 20 20 20 19 19 20 20 20 20 19 19 19 20 20 19 19 19 19 20 20 20 20 20
25 25 24 24 24 24 23 23 23 23 23 23 23 23 22 22 22 22 22 22 23 22 22 22 23 23 22 21 20 20 22 22 22 22 22 22 22 22 22 22 22 22 22 22 23 23 22 22 22 22 22 22 21 21 21 21 20 20 20 20 21 21 21 21 20 20 20 20 20 20 20 20 19 19 19 19 19 19 19 19 19 19 19 19 20
25 25 24 24 24 24 23 23 23 23 23 23 23 23 23 23 22 22 22 23 23 22 23 22 23 23 22 21 20 21 22 21 21 22 21 22 22 22 22 22 22 22 22 22 22 23 23 22 22 22 22 22 22 21 21 21 21 20 21 21 21 21 21 21 21 20 20 20 20 20 20 20 20 20 20 19 19 19 19 19 19 19 19 19 19
25 25 24 24 24 24 23 23 23 23 23 23 23 22 23 23 22 22 22 23 23 22 22 22 22 22 22 23 22 22 22 21 21 21 21 21 22 22 22 22 22 22 22 22 22 22 22 22 22 22 22 22 22 21 21 21 21 21 21 21 21 21 21 21 21 21 21 21 21 21 20 20 20 20 20 20 20 20 20 20 19 19 19 19 19
25 25 24 24 24 24 23 23 23 23 23 23 23 22 22 23 22 22 23 23 22 22 22 22 22 22 22 23 23 23 23 22 21 21 21 21 21 21 21 21 21 22 22 22 22 22 22 22 22 22 22 22 22 21 21 21 21 21 21 21 20 21 21 21 21 21 21 21 21 21 21 20 20 20 20 20 20 20 20 20 20 20 20 20 20
25 25 24 24 24 24 23 23 23 23 23 23 22 22 22 22 23 22 23 23 22 22 22 22 22 22 22 22 23 23 23 23 22 22 22 21 21 21 21 21 21 21 21 21 22 22 22 22 22 22 22 22 21 21 21 21 21 21 21 21 21 21 20 20 21 21 21 20 20 20 20 20 20 20 20 20 20 20 20 20 20 20 20 20 20
25 24 24 24 24 24 23 23 23 23 23 22 22 22 22 23 23 22 23 23 22 22 22 22 22 23 23 22 22 22 22 22 23 22 22 22 22 20 20 21 21 21 22 21 21 22 22 22 22 22 22 22 22 21 21 21 21 21 21 21 21 21 21 20 21 21 20 20 20 20 20 20 20 20 20 20 20 20 20 20 20 20 20 20 20
25 24 24 24 24 24 24 23 23 23 23 22 22 22 22 23 23 23 23 23 22 22 22 22 23 23 23 23 22 22 22 22 22 22 22 21 21 21 20 21 20 21 22 22 22 22 22 22 22 22 22 22 22 21 21 21 21 21 21 21 21 21 21 21 21 20 20 20 20 20 20 20 20 20 20 20 20 20 20 20 20 20 20 20 20
24 24 24 24 24 24 24 23 23 23 22 22 23 23 23 23 23 23 23 22 22 22 22 22 23 23 23 23 23 22 22 22 22 22 22 20 21 21 20 21 21 21 22 22 22 22 22 22 22 22 22 21 21 21 21 21 21 21 21 21 21 21 21 21 21 20 20 20 20 20 20 20 20 19 19 19 19 19 19 19 19 19 19 19 19
24 24 24 24 24 24 24 23 23 23 23 23 23 23 23 23 22 22 23 22 22 22 22 22 22 22 22 23 23 23 23 23 23 23 23 22 22 21 20 21 21 21 22 22 22 22 22 22 22 22 21 21 21 21 21 21 21 21 21 21 21 21 21 21 21 21 20 20 20 20 20 20 20 19 19 19 19 19 19 18 18 18 19 19 19
24 24 24 24 24 24 23 23 23 23 23 23 23 23 23 22 22 23 23 22 22 22 22 22 22 22 22 22 23 23 22 23 23 23 23 23 22 21 20 20 20 21 22 22 22 22 22 22 22 22 21 21 21 21 21 21 21 21 21 21 21 21 21 21 21 21 21 20 20 20 20 20 20 19 19 19 19 19 19 19 18 18 18 18 18
24 24 24 24 24 24 23 23 23 23 23 23 23 23 23 22 22 23 23 22 22 22 22 22 22 22 22 22 22 22 22 22 23 23 23 22 22 22 21 20 20 21 21 22 22 22 22 22 22 22 21 21 21 21 21 21 21 21 21 21 21 21 21 21 21 21 21 21 20 20 20 20 20 19 19 19 19 19 19 19 18 18 18 18 18
25 25 24 24 24 24 23 23 23 23 23 23 23 23 23 22 22 23 23 22 22 22 22 22 22 22 22 22 22 22 22 22 22 23 23 23 22 22 22 21 21 20 19 20 21 21 22 22 22 22 21 22 22 22 22 22 21 21 21 21 21 21 21 21 21 21 21 21 20 20 20 20 20 20 20 19 19 19 19 19 19 19 18 18 18
25 25 24 24 24 24 23 23 23 23 23 23 23 23 23 22 23 23 23 22 22 22 22 22 22 22 22 22 22 22 22 22 22 23 22 22 22 22 22 22 21 20 19 20 20 20 21 21 21 22 22 22 22 22 22 22 22 21 21 21 21 21 21 21 21 21 21 21 20 20 20 20 20 20 20 20 20 20 19 19 19 19 19 18 18
25 25 24 24 24 24 24 23 23 23 23 23 23 23 23 23 23 23 23 22 22 22 22 22 22 22 22 22 22 22 22 22 22 22 22 22 22 22 22 22 22 21 20 21 20 19 21 21 21 21 22 22 22 22 22 22 22 21 21 21 21 21 21 21 21 21 20 20 20 20 20 20 20 20 20 20 20 20 20 19 19 19 19 19 19
24 24 24 24 24 24 24 23 23 23 23 23 23 23 23 23 23 23 23 23 23 22 22 22 22 22 22 22 22 22 22 22 22 22 22 22 22 22 22 22 22 21 21 20 20 20 21 21 21 21 21 21 21 21 21 21 21 21 21 21 21 21 21 21 21 20 20 20 20 20 20 20 20 20 20 20 20 20 20 19 19 19 19 19 19
24 24 24 24 24 23 23 23 23 23 23 23 23 23 23 23 23 23 22 23 23 22 22 22 22 22 22 22 22 22 22 22 22 22 22 22 22 22 22 22 22 22 21 20 20 21 21 21 21 21 21 21 21 21 21 21 21 21 21 21 21 21 21 21 21 20 20 20 20 20 20 20 20 20 20 20 19 19 19 19 19 19 19 19 19
24 24 24 24 24 23 23 23 23 23 23 23 23 23 23 23 23 23 23 23 23 22 22 22 22 22 22 22 22 22 22 22 22 22 22 22 22 22 22 22 21 21 21 20 19 20 21 21 21 21 21 21 21 21 21 21 21 21 21 21 21 21 21 21 21 21 21 20 20 20 20 20 20 20 20 19 19 19 19 19 19 19 19 19 19
24 24 24 24 24 24 23 23 23 23 23 23 23 23 23 23 23 23 23 23 22 22 22 22 22 22 22 22 22 22 22 22 22 22 22 22 22 21 21 21 21 21 21 21 19 19 20 21 21 21 21 21 21 21 21 22 22 21 21 21 21 21 21 21 21 21 20 20 20 20 20 20 20 20 19 19 19 19 19 19 19 19 19 19 19
24 24 24 24 24 23 23 23 23 23 23 23 23 23 23 23 23 23 23 23 22 22 22 22 22 22 22 22 22 22 22 22 22 22 22 22 21 21 21 21 21 21 21 21 20 19 20 21 21 21 21 21 21 21 21 21 21 21 21 21 21 21 21 21 20 20 20 20 20 20 20 19 19 19 19 19 19 19 19 19 19 19 19 19 19
24 24 24 24 23 23 23 23 23 23 23 23 23 23 23 23 23 23 23 23 22 22 22 22 22 22 22 22 22 22 22 22 22 22 21 21 21 21 21 21 21 21 21 21 21 20 19 20 21 21 21 21 21 21 21 21 21 21 21 21 21 20 20 20 20 20 20 20 20 20 20 19 19 19 19 19 19 19 19 19 19 19 19 19 18
23 23 23 23 23 23 23 23 23 23 23 23 23 23 23 23 23 23 23 23 22 22 22 22 22 22 22 22 22 22 22 22 22 22 21 21 21 21 21 21 21 21 21 21 21 20 20 20 20 21 21 21 21 21 21 21 21 21 20 20 20 20 20 19 19 19 19 19 19 20 19 19 19 19 19 19 19 19 19 19 19 19 18 18 18
23 23 23 23 23 23 23 23 23 23 23 23 23 23 23 23 23 23 23 23 22 22 22 22 22 22 22 22 22 22 22 22 22 22 21 21 21 21 21 21 21 21 21 21 21 20 20 20 20 20 21 21 21 21 21 20 20 20 20 20 20 19 19 19 19 19 19 19 19 19 19 19 19 19 19 19 19 19 19 18 18 18 18 18 18
23 23 23 23 23 23 23 23 23 23 23 23 23 23 23 23 23 23 23 23 23 22 22 22 22 22 22 22 22 22 22 22 22 22 22 21 21 21 21 21 21 21 21 21 20 20 20 20 20 20 20 20 20 20 20 20 19 19 19 19 19 19 19 19 19 19 19 19 19 19 19 19 18 19 19 19 18 18 18 18 18 18 18 18 18
23 23 23 23 23 23 23 23 23 23 23 23 23 23 23 23 23 23 22 22 22 22 22 22 22 22 22 22 22 22 22 22 22 22 21 21 21 21 21 21 21 21 21 21 20 20 20 20 20 20 20 20 20 19 19 19 18 18 18 18 18 18 18 18 18 18 18 18 18 18 18 18 18 18 18 18 18 18 18 18 18 18 18 17 17
23 23 23 23 23 23 23 23 23 23 23 23 23 22 22 22 22 22 22 22 22 22 22 22 22 21 22 22 22 22 22 22 22 22 21 21 21 21 21 21 21 21 21 21 20 20 20 20 20 20 20 19 19 19 18 18 18 18 18 17 17 17 17 17 17 18 18 18 18 18 18 18 18 17 17 17 17 17 17 17 18 18 17 17 17
23 23 23 23 23 23 23 23 23 22 22 22 22 22 22 22 22 22 22 22 22 22 21 21 21 21 21 21 22 22 22 22 21 21 21 21 21 21 21 21 21 21 21 20 20 20 20 19 19 20 19 18 18 18 18 18 18 17 17 17 16 17 17 17 17 17 17 17 17 17 17 17 17 17 17 17 17 17 17 17 17 17 17 17 16
23 23 23 23 23 23 23 22 22 22 22 22 22 22 22 22 22 22 22 22 22 21 21 21 21 21 22 21 21 21 21 21 21 21 21 21 21 21 21 21 21 21 21 20 20 20 19 19 19 19 18 18 18 18 17 18 17 17 17 16 16 16 16 16 16 17 17 16 16 16 16 16 16 16 16 16 17 17 16 16 17 16 16 16 16
23 23 23 23 23 23 22 22 22 22 22 22 22 22 22 22 22 22 22 22 22 21 21 22 22 22 22 21 21 21 21 21 21 21 21 21 21 21 21 21 21 21 21 20 20 20 19 19 18 18 17 17 18 18 17 17 17 16 16 16 16 15 15 15 15 16 16 16 15 15 16 16 16 15 15 16 16 16 16 16 16 16 16 16 16
23 23 23 23 23 23 22 22 22 22 22 22 22 22 22 22 22 22 22 22 22 21 21 21 22 22 22 21 20 20 20 21 21 21 21 21 21 21 21 21 21 21 21 20 20 20 19 18 18 17 17 17 18 17 17 16 16 16 15 15 15 15 15 15 14 15 16 16 15 14 15 15 15 15 15 15 16 15 15 16 16 16 16 16 16
23 23 23 23 23 23 22 22 22 22 22 22 22 22 22 22 22 21 21 22 22 21 21 21 21 21 21 20 20 20 20 20 20 21 21 21 21 21 21 21 21 21 20 20 20 19 18 18 18 18 17 17 17 17 16 16 15 15 15 15 15 15 15 15 15 15 15 15 15 14 14 15 15 14 15 15 15 15 15 15 16 16 16 16 16
23 23 23 23 23 23 22 22 22 22 22 22 22 22 22 22 21 20 20 22 22 20 20 21 21 21 20 20 20 21 20 20 20 20 21 21 21 21 21 20 20 20 20 20 19 19 18 18 18 17 17 17 17 16 16 15 15 15 15 15 15 15 15 15 15 15 15 15 14 13 13 14 15 14 14 15 15 15 15 15 15 16 16 16 16
23 23 23 23 23 23 23 22 22 22 22 22 22 22 22 21 21 20 19 20 21 19 20 20 20 20 20 20 20 20 20 20 20 20 21 21 21 21 21 20 20 20 19 19 19 18 18 17 17 17 17 17 16 16 16 16 16 16 16 15 15 15 14 14 14 15 15 15 14 13 13 14 15 14 14 15 15 15 15 15 15 16 16 16 16
23 23 23 23 23 23 22 22 22 22 22 22 22 22 22 21 20 19 18 19 20 19 19 20 20 20 20 19 19 20 20 20 20 20 21 21 21 20 20 20 20 20 19 19 18 18 17 17 17 17 17 16 16 15 16 16 16 16 16 15 15 15 14 14 14 14 15 15 14 13 13 14 14 14 14 15 14 14 15 15 15 15 15 15 15
23 23 23 23 23 23 23 22 22 22 22 22 22 22 22 21 20 19 19 19 19 18 19 20 20 19 19 19 19 20 19 20 20 20 21 21 20 20 20 20 19 19 19 18 18 17 17 17 17 16 16 16 15 16 16 16 16 16 15 15 15 14 14 13 13 14 14 15 15 14 13 13 14 14 14 14 14 14 14 15 15 15 15 15 15
23 23 23 23 23 23 23 22 23 23 22 22 22 22 22 20 19 19 19 19 18 18 19 19 18 18 19 19 20 19 19 19 20 20 20 20 20 20 20 19 19 19 18 18 17 17 17 17 16 16 16 16 16 16 16 16 15 15 15 15 14 14 14 13 13 13 14 14 15 14 13 14 14 14 14 14 14 14 14 14 15 15 15 15 15
23 23 23 23 23 23 23 23 23 23 22 22 22 22 21 20 19 19 19 19 18 18 18 18 18 18 19 19 20 19 19 19 20 20 20 20 20 20 19 19 19 19 18 18 17 17 17 16 16 16 16 16 16 16 15 15 15 15 15 15 14 14 14 14 13 13 12 13 14 14 13 13 14 14 13 13 12 13 14 14 14 15 15 15 15
Height
842 842 843 843 843 843 844 844 844 844 845 845 845 846 846 846 847 847 847 847 847 847 848 848 848 848 849 849 849 849 849 849 849 849 848 848 849 849 849 849 850 849 850 850 851 853 854 855 855 854 854 854 854 855 856 857 858 859 860 860 861 862 863 864 864 865 866 867 868 869 870 870 871 871 872 872 872 873 873 874 874 874 875 875 875
841 842 842 842 842 843 843 843 844 844 844 845 845 845 846 846 846 846 847 847 847 848 848 848 848 848 848 849 849 849 849 849 848 848 848 848 849 849 849 849 850 850 850 851 852 854 854 854 853 853 853 853 853 855 856 858 859 860 860 861 862 862 863 863 864 865 866 867 868 868 869 870 871 871 872 872 872 873 873 874 874 874 874 875 875
841 841 841 841 842 842 843 843 843 844 844 844 845 845 845 846 846 846 847 847 847 847 848 848 848 848 848 848 848 849 849 848 848 848 848 848 848 849 849 849 849 849 850 851 852 853 854 853 853 853 853 853 854 856 858 859 859 860 861 861 862 862 863 863 863 864 865 866 867 868 868 869 870 871 871 871 872 872 873 873 874 874 874 874 874
840 840 840 841 841 842 842 843 843 843 844 844 844 845 845 845 845 846 846 846 847 847 847 847 848 848 847 847 848 848 848 848 848 848 848 848 848 849 849 849 849 849 849 850 851 853 853 852 852 853 853 854 855 858 859 859 859 859 860 861 862 862 862 862 863 864 864 865 866 867 868 868 869 870 870 871 872 872 872 873 873 873 874 874 874
839 839 840 841 841 842 842 842 843 843 843 844 844 844 845 845 845 846 846 846 846 846 846 847 847 847 847 847 847 847 847 848 848 848 848 848 848 849 849 849 849 848 849 850 850 852 853 853 852 853 853 854 856 858 858 857 858 859 860 860 861 862 862 862 862 862 863 864 865 866 867 867 868 869 870 870 871 872 872 872 873 873 873 873 874
838 839 840 840 841 841 842 842 842 843 843 843 843 844 844 844 845 845 845 845 846 846 846 846 846 846 846 846 846 847 847 847 848 847 847 848 848 848 848 849 848 848 849 850 850 851 853 852 852 853 853 854 855 857 857 856 857 859 859 860 861 861 861 861 861 861 862 863 864 865 866 867 868 869 869 869 870 870 871 872 872 872 872 873 873
838 839 839 840 840 841 841 841 842 842 842 843 843 843 843 843 844 844 845 845 845 845 845 845 845 845 845 846 846 846 847 847 847 847 848 848 848 848 848 848 848 849 849 850 850 850 852 852 851 852 853 854 854 855 856 856 856 857 858 859 860 861 860 860 860 860 861 862 864 864 865 866 867 867 867 867 868 869 870 871 871 871 871 872 872
837 838 839 839 839 840 840 841 841 842 842 842 842 842 843 843 843 844 844 844 844 844 844 844 845 845 845 846 846 846 847 847 847 848 848 848 848 848 848 848 848 849 849 850 850 850 851 851 851 851 851 852 853 854 855 855 855 856 857 858 859 860 860 859 859 859 860 861 863 863 864 865 865 864 864 865 865 866 867 869 870 870 870 870 871
836 837 838 838 839 839 839 840 841 841 842 842 842 842 843 843 843 843 843 843 844 844 844 844 844 845 845 845 846 847 847 847 848 848 848 848 848 847 847 848 848 848 849 850 850 850 850 850 850 850 850 851 852 853 853 853 854 855 856 857 858 859 858 858 859 859 859 860 861 862 863 864 864 862 863 864 864 864 865 867 868 869 869 869 869
835 836 837 837 838 838 839 839 840 840 841 841 842 842 843 843 843 843 843 843 843 843 843 843 844 844 845 845 846 847 847 848 848 848 848 848 848 848 848 848 848 848 849 849 849 850 850 850 850 850 850 851 851 852 852 852 853 854 855 856 858 858 857 857 858 859 860 860 860 861 861 862 862 862 861 862 862 862 863 865 867 867 868 868 868
834 835 836 836 837 837 838 838 839 840 840 841 841 842 842 842 842 842 842 842 842 843 843 843 843 844 844 845 846 847 847 848 848 848 849 849 849 848 848 848 848 848 849 849 849 849 849 849 850 850 850 850 851 851 852 852 852 853 854 855 856 856 856 857 858 859 860 860 860 860 860 861 861 861 860 860 859 860 861 863 865 866 866 867 867
833 834 834 835 836 836 837 838 838 839 839 840 841 841 841 842 842 842 842 842 842 842 843 843 843 844 844 845 846 847 847 848 848 848 848 849 849 849 849 849 849 849 849 848 849 849 849 849 849 850 850 850 850 850 851 851 852 852 852 854 854 855 855 855 856 858 859 860 860 860 861 861 861 861 860 859 859 859 860 862 863 864 865 865 864
832 833 833 834 835 835 836 837 837 838 838 839 840 841 841 841 841 841 842 842 842 842 843 843 844 844 844 845 846 846 847 848 848 847 848 849 849 849 849 849 850 849 849 849 849 849 849 849 849 850 850 850 850 850 850 850 850 851 852 853 854 854 855 855 855 857 858 859 860 860 860 861 861 861 861 860 859 859 860 861 862 862 862 862 862
831 831 832 833 833 834 834 835 836 837 838 839 840 840 840 841 841 841 841 841 842 842 843 843 844 845 845 846 846 847 847 847 848 847 848 848 849 849 849 850 850 850 850 849 849 849 849 849 849 849 850 850 850 850 850 850 850 851 851 852 853 854 855 855 856 857 857 857 858 859 859 860 860 860 860 859 860 860 860 860 860 860 860 860 860
829 830 830 831 832 833 833 834 835 836 837 838 839 839 840 840 840 840 841 841 842 842 843 843 844 845 845 847 848 848 848 847 847 848 848 848 849 849 849 849 850 850 850 850 850 849 849 849 850 850 850 850 850 850 850 850 851 851 851 852 853 853 854 855 856 857 857 856 857 857 858 858 859 860 860 859 860 860 860 859 859 858 858 858 858
828 829 829 830 831 832 833 834 835 835 836 837 838 838 839 839 840 840 840 841 841 842 843 843 844 844 846 848 849 850 851 849 847 848 848 848 849 849 849 850 850 850 850 850 850 850 850 850 850 850 850 850 850 850 851 851 851 852 852 852 853 853 854 854 855 855 856 856 857 857 858 858 859 861 861 860 860 860 859 858 858 857 857 857 856
826 827 828 829 830 831 832 833 834 835 835 836 837 837 838 838 839 840 840 840 841 842 842 843 843 844 845 847 848 851 851 848 847 848 848 848 849 849 850 850 850 850 851 851 851 851 851 851 851 851 851 850 850 851 851 851 851 852 852 853 853 853 853 854 854 855 855 856 857 858 858 859 860 860 860 860 859 858 858 857 857 857 856 856 856
824 825 827 828 829 830 831 832 833 834 834 835 836 836 837 838 838 839 839 840 841 841 842 842 843 843 843 844 845 847 847 846 848 850 849 849 850 850 850 851 851 851 851 851 852 852 852 852 852 852 851 851 851 851 851 851 852 852 853 853 853 853 854 854 854 855 856 856 857 857 858 858 859 859 859 858 858 857 857 857 857 856 856 856 856
822 824 825 826 828 829 830 831 832 832 833 834 835 835 836 837 838 838 839 839 840 840 841 842 842 842 843 843 842 843 843 844 847 849 850 850 850 850 851 851 851 851 851 852 852 852 852 852 853 852 852 852 852 852 852 852 852 852 853 853 853 854 854 854 854 855 855 856 856 857 857 857 858 858 858 857 857 856 857 856 856 856 856 856 855
820 822 823 825 826 828 829 829 830 831 832 833 833 834 835 836 837 837 838 839 839 840 841 841 842 842 842 842 842 842 843 843 844 845 848 850 850 850 850 850 851 851 851 852 852 852 853 853 853 853 853 852 852 853 853 853 853 853 853 853 853 854 854 854 854 854 855 855 855 856 856 857 857 857 857 857 857 856 856 856 856 856 856 855 855
818 820 822 823 825 826 827 828 829 830 831 832 833 833 834 835 836 837 837 838 839 840 840 841 841 842 842 842 842 842 843 843 844 844 845 848 849 849 849 850 850 850 850 851 852 852 852 853 853 853 853 852 852 853 853 853 853 853 853 853 853 854 854 854 854 854 854 855 855 855 855 856 856 856 856 856 856 856 856 856 856 856 855 855 855
816 818 820 821 823 824 825 826 827 829 830 830 831 832 833 835 835 836 837 838 839 839 840 841 841 842 842 842 842 842 843 843 844 844 844 846 848 847 847 848 849 849 849 850 851 851 852 852 852 852 852 852 852 853 853 853 853 853 853 853 854 854 854 854 854 854 854 854 854 855 855 855 855 855 855 855 855 855 856 855 855 855 855 854 854
814 815 817 819 821 822 823 825 826 827 828 829 830 831 832 834 835 836 837 838 839 839 840 840 841 841 841 841 842 842 843 843 843 844 844 845 846 847 847 847 847 847 848 849 849 850 851 851 851 852 852 852 852 852 852 852 852 853 853 853 853 853 854 854 854 854 854 854 854 854 854 854 854 854 854 854 854 854 854 854 855 854 854 854 853
812 813 815 817 818 820 822 823 825 826 827 828 829 830 832 833 834 835 836 837 838 839 840 840 841 841 841 841 842 842 842 843 843 843 844 844 845 846 846 846 847 847 847 848 848 849 849 850 850 850 851 851 852 851 852 852 852 852 852 853 853 853 853 853 853 853 853 853 853 853 853 853 853 853 853 853 853 853 853 853 853 853 853 853 852
808 810 812 814 816 818 820 821 823 824 826 827 828 830 831 832 833 834 835 837 838 839 839 840 840 841 841 842 841 842 842 843 843 843 844 844 845 845 846 846 847 847 847 847 847 848 848 848 849 849 850 850 851 851 851 851 851 851 851 852 852 852 853 853 853 853 853 852 852 852 852 852 852 852 852 852 852 852 852 852 852 852 852 851 851
805 807 809 812 814 816 818 820 822 823 825 826 827 829 830 831 833 834 835 836 838 838 839 840 840 841 841 841 841 842 842 842 843 843 843 844 844 845 845 846 847 847 847 847 847 847 847 847 848 848 849 849 849 849 849 849 849 850 850 850 851 851 852 852 852 852 852 852 851 851 851 851 851 850 850 850 850 850 850 850 850 850 850 850 850
803 805 807 810 812 814 816 818 820 822 824 825 826 828 829 831 832 834 835 836 837 838 839 839 840 840 840 841 841 841 841 842 842 842 843 843 844 844 845 846 847 847 847 847 846 846 846 846 847 847 848 848 847 847 847 847 847 848 849 849 849 850 850 850 851 851 851 851 851 850 850 850 849 849 849 849 849 848 848 848 848 848 848 848 848
801 804 806 808 810 813 815 817 819 821 822 824 825 827 828 830 831 833 834 835 836 836 837 838 838 839 839 840 840 840 841 841 841 842 843 843 843 844 844 845 847 848 848 847 846 845 845 845 846 846 846 846 846 846 846 846 846 847 847 847 847 848 848 848 848 848 849 849 849 849 848 848 848 848 847 847 847 846 846 846 846 846 846 845 845
800 802 804 806 808 811 813 816 818 819 821 822 824 826 827 829 830 831 832 833 834 835 835 836 837 838 838 839 839 839 840 840 841 841 842 842 843 843 843 843 845 847 848 848 846 844 844 844 844 845 845 845 845 845 845 845 845 845 845 846 846 846 846 846 846 846 846 846 846 846 846 846 846 846 845 845 845 845 844 844 844 843 843 843 843
799 800 802 804 807 809 811 814 815 817 819 821 823 824 826 827 828 829 830 831 832 833 834 834 835 837 837 838 838 838 839 839 840 840 841 842 842 842 843 843 843 844 845 847 845 842 842 843 843 843 843 844 844 844 844 844 844 844 844 844 844 844 845 845 845 844 844 844 843 843 843 843 843 843 843 843 842 842 842 842 841 841 841 841 840
797 799 800 802 804 807 809 812 813 815 817 819 821 822 823 825 826 827 828 829 830 831 832 833 834 835 836 836 837 837 838 838 838 839 839 840 841 842 842 842 843 843 843 844 845 842 841 841 841 842 842 842 843 843 843 843 843 843 843 843 843 843 843 843 843 843 842 842 841 841 840 840 840 840 840 840 840 839 839 839 839 839 839 838 838
795 796 798 800 802 804 807 809 811 813 815 816 818 820 821 822 823 824 825 827 828 829 830 831 832 834 834 835 835 836 837 837 837 838 838 839 840 841 841 842 842 842 842 843 843 841 840 841 841 841 841 841 841 841 841 842 842 842 842 842 841 841 841 841 841 841 841 840 840 839 839 838 838 838 837 837 837 837 836 836 836 836 836 836 835
792 794 796 797 800 802 804 807 808 810 812 813 815 816 818 819 820 821 823 824 826 827 829 830 830 831 832 833 834 835 835 836 836 837 837 838 839 839 840 841 841 842 842 841 841 841 840 840 840 840 840 840 840 840 840 840 840 841 840 840 840 840 839 839 839 839 839 838 838 837 837 836 836 836 835 835 834 834 833 833 833 833 833 833 832
790 791 793 795 797 800 802 804 806 807 809 810 812 813 814 815 816 818 820 822 823 825 826 827 827 828 829 830 831 833 834 835 835 836 836 837 838 838 839 840 841 841 841 841 841 840 840 840 840 840 840 840 839 839 839 839 839 839 839 839 839 838 838 838 837 837 837 836 836 835 835 834 834 834 833 832 831 831 831 831 830 830 830 830 829
787 789 791 793 795 797 799 801 803 804 806 807 808 809 810 812 813 815 817 819 821 822 823 824 825 827 828 828 829 831 832 833 833 834 835 835 836 837 838 839 840 841 841 841 841 841 840 840 840 840 840 840 839 839 839 838 838 838 837 837 837 837 836 836 835 835 834 834 833 833 832 832 832 832 831 830 829 829 828 828 828 827 827 827 826
784 786 789 790 792 794 796 798 799 801 802 803 804 805 806 808 810 812 814 816 817 819 820 821 823 825 826 827 827 829 830 830 831 832 833 834 834 836 837 838 839 840 841 841 841 841 841 840 840 839 839 839 838 838 838 837 837 836 836 835 835 834 834 834 833 832 832 832 831 831 831 830 830 829 828 828 827 827 826 826 825 825 824 824 823
781 783 786 787 789 790 792 793 795 796 797 799 800 801 803 806 808 810 811 813 815 816 818 820 822 823 824 824 825 827 828 828 829 830 831 833 833 834 836 837 838 839 840 841 841 841 840 839 838 838 839 838 837 837 837 836 835 835 834 834 833 833 832 831 831 830 829 829 829 829 828 828 828 827 826 826 825 825 824 824 823 822 822 821 820
777 780 782 784 785 786 788 789 791 792 794 795 796 798 801 803 805 807 808 811 812 814 816 818 820 821 822 822 823 825 825 825 826 828 830 831 833 833 835 836 837 838 839 839 840 840 839 838 837 837 837 837 836 836 836 835 834 833 832 832 831 831 830 829 828 827 827 827 826 826 826 826 825 824 824 823 823 822 822 821 821 820 818 817 816
773 775 777 780 781 782 783 785 786 788 790 792 793 795 798 800 802 804 806 808 810 812 814 816 818 819 820 821 822 823 823 823 824 826 828 830 831 832 833 834 835 836 837 837 838 838 837 837 836 836 835 836 836 835 835 835 834 833 832 831 829 829 829 828 826 825 825 825 824 824 824 823 822 822 821 821 820 820 819 818 817 815 814 813 812
768 770 772 774 776 778 779 781 783 785 787 788 790 792 795 797 799 801 803 806 808 810 813 815 817 819 820 820 820 820 821 821 822 824 826 828 830 830 831 832 833 833 834 835 836 836 836 836 835 835 835 835 835 835 835 834 834 833 832 832 830 828 828 827 826 824 823 823 822 822 821 820 820 819 818 818 818 817 816 814 813 812 810 810 809
763 765 767 770 772 774 776 778 780 782 783 784 785 788 791 793 796 798 801 803 805 808 811 815 818 819 820 819 818 818 818 819 821 822 824 826 827 828 828 829 830 831 832 833 834 834 835 835 835 835 835 835 835 835 834 834 833 832 832 831 830 828 827 826 824 823 823 822 821 820 820 819 818 816 815 814 814 813 812 811 810 809 808 807 806
757 760 763 765 767 769 772 774 776 778 779 780 781 784 787 789 792 795 798 801 803 806 810 813 813 813 814 815 816 817 818 818 819 821 822 824 824 825 826 826 827 828 829 830 831 832 833 834 834 834 835 834 834 834 834 833 832 831 830 829 828 827 826 824 822 821 821 821 820 819 818 818 816 815 813 811 810 809 808 807 807 806 805 805 804
752 755 757 760 762 765 767 769 772 774 774 775 777 780 783 785 788 792 796 799 801 803 805 806 806 807 809 812 815 817 817 817 818 819 820 821 822 822 823 823 825 826 827 828 829 830 832 832 833 834 834 833 832 832 832 831 830 829 828 827 826 825 824 823 821 820 819 819 818 817 816 816 815 813 811 809 808 806 806 805 804 803 803 802 802
748 750 752 754 756 759 762 765 767 769 769 771 773 775 778 781 784 789 794 796 798 799 801 802 804 806 807 809 812 814 815 815 815 816 817 819 819 820 821 821 822 824 825 826 828 828 830 831 832 832 831 831 830 830 830 829 828 827 826 825 824 823 822 822 820 818 818 817 816 815 814 813 812 811 809 808 806 805 804 803 802 801 800 799 799
744 745 746 748 750 754 757 759 762 763 765 766 768 771 773 776 782 787 791 793 795 796 799 801 803 805 805 806 809 810 812 812 813 814 815 816 816 817 818 819 820 822 823 824 825 826 827 829 829 828 828 828 828 828 828 827 826 825 824 823 822 821 821 820 818 817 816 816 815 813 812 811 810 808 807 806 805 804 803 802 800 799 798 797 797
739 739 740 742 745 748 750 753 756 758 759 761 764 767 769 773 780 784 787 791 794 795 797 799 801 802 803 804 805 807 808 809 810 811 813 813 813 814 815 816 818 819 821 822 823 824 825 826 826 825 825 826 825 825 825 825 825 824 823 821 820 819 819 817 816 815 814 814 813 811 809 808 807 806 805 804 803 802 801 800 799 798 797 796 795
734 734 735 737 739 742 745 748 751 752 754 756 759 762 765 771 777 780 784 791 794 792 792 795 798 800 801 801 802 803 804 805 807 809 810 810 811 812 813 814 815 816 817 819 820 821 822 823 823 823 823 823 823 823 823 823 823 822 821 820 818 818 817 816 815 813 813 812 811 810 808 806 805 804 803 802 801 800 799 798 797 795 794 793 792
729 730 731 732 734 737 740 743 745 747 749 751 754 758 762 768 774 778 782 787 787 786 788 791 794 796 796 797 799 800 801 803 804 806 807 807 808 809 810 811 812 813 815 816 817 819 820 820 821 821 821 821 821 821 821 821 821 820 819 818 817 816 815 814 813 812 811 810 809 808 806 804 804 802 800 800 799 797 796 795 794 793 792 791 790
724 725 726 727 729 732 735 737 740 742 744 747 749 753 758 764 769 774 777 778 781 784 787 788 790 791 792 794 796 797 798 800 802 803 804 805 805 806 807 808 810 811 812 814 815 817 817 818 819 819 819 820 820 820 820 819 818 818 817 816 816 815 814 813 812 810 809 808 807 806 805 803 802 801 799 797 796 795 793 792 791 790 790 789 788
718 720 722 724 726 728 730 732 735 737 739 742 745 749 754 758 763 768 772 774 777 782 785 786 786 787 789 791 792 794 795 797 799 801 801 802 803 804 805 806 807 809 811 812 814 815 816 817 817 817 818 818 818 818 818 817 817 816 816 815 814 813 812 811 810 808 807 806 805 804 803 801 800 799 797 795 793 792 791 790 789 788 787 786 785
714 717 719 722 723 724 726 729 731 733 735 738 741 746 751 754 758 763 768 771 774 777 779 782 783 783 785 787 789 790 792 794 796 798 799 800 801 802 803 804 805 807 809 811 812 813 814 815 815 816 816 817 817 816 816 816 815 815 814 814 813 812 811 809 808 807 805 804 803 803 801 800 799 798 796 794 791 789 788 788 787 786 785 784 782
Wind_Speed
12 11 10 11 11 10 8 7 7 7 7 7 7 8 7 6 5 6 7 6 5 4 3 1 1 2 3 3 3 4 4 5 6 6 6 5 6 8 8 8 11 14 15 14 14 13 12 12 13 13 13 14 14 14 14 14 14 14 13 12 12 11 11 10 10 9 9 9 8 8 7 7 7 7 7 7 6 6 6 7 7 7 7 7 7
13 12 12 13 12 12 10 8 7 7 8 7 7 6 6 6 5 6 7 6 5 3 3 2 1 3 5 5 4 4 4 5 6 7 8 7 6 7 9 8 10 13 15 15 14 13 13 13 14 14 15 15 15 15 14 14 14 13 13 12 12 11 11 11 10 10 10 10 9 9 8 8 8 8 8 8 8 8 7 8 8 8 8 8 8
15 14 14 14 14 13 11 8 8 8 8 7 6 6 6 6 5 6 6 5 4 4 3 2 1 3 4 5 5 5 6 5 5 6 8 9 6 6 8 8 8 11 14 16 15 15 14 13 15 15 16 15 15 13 12 13 13 14 13 13 12 12 12 11 11 11 11 11 10 10 10 9 9 9 9 9 9 9 9 9 9 9 9 9 9
17 16 16 16 15 14 12 10 9 8 8 7 7 6 6 6 6 6 7 6 6 5 5 2 1 1 1 3 6 5 5 5 4 5 7 9 7 6 7 7 7 8 11 14 16 15 14 14 15 15 14 14 13 12 12 13 13 13 13 13 13 12 12 12 11 11 11 12 12 11 11 11 10 10 10 10 10 10 10 10 10 10 10 10 10
18 17 17 17 16 14 13 12 10 9 8 8 7 7 6 6 7 8 7 7 7 6 6 4 2 1 1 2 5 5 5 5 4 4 5 7 7 6 6 6 6 6 8 11 13 15 15 15 15 15 14 14 13 12 13 14 14 13 13 14 13 13 13 13 13 13 12 12 12 12 12 12 11 11 11 11 11 11 11 11 11 12 11 11 11
19 18 17 17 16 14 14 13 12 10 9 9 8 8 7 7 7 8 7 7 7 6 6 5 3 2 1 2 3 3 4 4 4 4 5 7 7 6 7 7 7 7 6 7 10 12 13 14 14 15 14 14 14 14 14 15 14 14 14 14 13 14 14 14 14 14 13 13 13 12 12 12 11 11 11 11 12 12 12 12 13 13 13 12 12
19 18 17 16 16 15 14 14 12 12 11 11 10 9 9 8 7 8 8 8 7 5 5 5 4 3 0 3 3 1 2 5 5 4 5 6 6 6 7 8 9 8 6 5 6 8 10 12 14 14 14 14 14 14 15 16 15 15 15 15 14 14 14 15 15 15 14 14 13 13 13 12 12 12 12 13 12 12 13 14 14 14 14 14 13
20 19 19 17 16 16 15 14 13 13 13 13 11 10 10 9 8 8 9 9 8 6 5 4 4 5 2 2 3 2 3 6 6 4 4 4 2 4 7 8 9 9 7 6 5 5 7 9 10 11 12 13 12 13 14 15 16 16 16 16 16 15 15 16 16 15 15 14 13 13 13 13 14 14 15 15 14 13 14 15 15 15 15 15 14
22 21 21 19 17 16 15 15 15 14 15 14 13 11 10 9 8 9 10 9 8 7 5 3 3 6 6 2 2 2 5 7 6 5 4 3 2 3 5 7 8 8 7 6 5 5 5 7 7 7 9 10 10 11 12 13 15 16 16 17 17 16 17 17 16 16 16 15 14 14 13 14 15 16 16 16 14 14 14 15 17 17 17 16 16
23 23 23 21 18 17 16 16 15 15 16 15 14 12 10 10 9 10 11 10 9 7 5 4 3 5 6 5 3 4 6 7 6 6 5 4 5 5 5 6 7 7 7 6 6 6 5 6 6 6 7 7 8 9 11 12 13 14 14 15 15 17 19 18 16 16 16 15 14 14 13 14 16 17 17 16 15 15 15 17 19 19 18 18 18
24 24 23 22 20 18 16 17 16 15 17 17 15 13 11 10 10 10 11 10 8 6 3 3 3 4 4 4 6 6 6 5 4 6 7 7 7 7 6 6 7 7 6 5 6 6 5 6 6 6 6 6 7 8 9 10 10 11 12 12 12 15 18 17 16 16 15 13 13 13 13 13 14 15 16 16 16 16 16 17 20 20 19 18 18
23 24 24 23 21 19 18 18 18 17 19 20 17 14 12 11 11 10 10 9 8 6 3 2 3 4 5 6 7 6 5 4 3 5 9 10 9 9 8 7 6 5 4 3 3 4 4 5 5 5 6 6 6 7 7 7 8 9 10 10 10 12 14 14 13 13 13 12 11 11 12 12 12 13 15 16 16 16 16 17 19 19 18 18 19
23 23 23 23 22 20 19 19 18 18 19 20 17 14 12 11 11 11 10 8 7 6 4 3 3 4 5 6 7 6 4 4 4 4 10 13 10 9 8 6 5 4 3 2 1 2 3 3 3 3 4 5 6 6 6 6 6 6 7 7 7 9 11 11 11 10 11 11 10 11 11 12 11 11 14 16 16 16 17 18 18 17 17 17 18
22 22 22 22 22 20 20 20 19 18 19 20 16 13 12 12 12 12 10 8 7 6 4 3 4 4 4 3 2 4 3 3 4 4 9 14 12 9 9 6 5 4 3 2 1 1 2 2 2 2 2 3 4 4 5 5 5 5 5 5 6 6 6 7 8 7 8 9 9 10 10 10 10 11 13 15 16 17 18 18 17 17 17 16 16
23 22 22 22 21 21 21 22 19 18 20 19 16 13 13 13 13 12 9 8 8 6 4 4 5 4 4 2 1 2 1 1 4 5 9 14 13 12 10 8 6 5 4 3 2 1 2 2 2 1 1 1 2 2 3 4 3 3 3 4 4 4 3 3 4 4 4 5 6 5 6 6 6 8 11 13 14 16 17 17 17 17 16 15 15
25 23 23 22 21 21 22 23 21 19 20 19 17 15 14 15 14 12 10 10 9 7 6 6 7 5 4 1 1 2 0 2 2 4 10 15 15 14 12 10 8 6 5 3 3 3 3 2 1 0 0 0 1 2 1 2 2 1 0 2 3 3 3 3 3 4 3 4 4 4 4 4 4 5 7 8 10 11 11 12 13 14 14 14 15
25 25 24 22 21 21 22 23 22 20 20 20 18 16 15 16 15 12 11 11 10 8 6 7 8 8 5 3 2 1 2 3 2 2 8 14 15 15 14 12 9 7 6 4 4 4 4 3 2 1 1 2 2 1 1 1 2 2 1 3 3 3 3 3 3 3 3 3 3 3 3 3 4 4 4 6 7 7 7 8 9 10 10 11 12
25 25 24 23 22 21 22 23 23 21 20 19 18 17 17 18 16 13 12 11 11 9 8 9 9 9 9 6 3 2 3 3 2 1 5 9 12 15 15 14 11 9 8 6 5 5 4 3 2 1 1 2 3 2 1 0 1 1 2 4 4 4 4 4 3 2 2 2 2 2 1 1 1 2 2 3 4 5 5 6 7 7 8 9 9
26 26 25 24 23 21 22 23 23 21 20 20 20 19 18 19 17 15 13 12 12 11 10 11 10 8 8 8 6 5 6 6 4 3 3 4 8 13 14 14 14 11 10 9 7 6 4 4 3 1 1 2 2 1 2 2 1 1 2 3 4 4 4 5 4 3 3 4 4 4 3 3 3 2 2 2 2 3 4 4 5 6 6 7 7
27 27 26 25 24 22 22 23 23 22 21 21 21 20 19 20 18 16 14 14 14 13 12 12 11 9 8 7 6 5 8 9 8 6 4 2 5 7 10 13 15 14 13 12 10 8 6 4 4 3 3 3 3 2 1 1 2 2 1 2 3 3 4 5 4 3 4 5 5 5 5 6 5 5 5 4 4 4 4 4 4 5 5 5 6
28 29 28 27 25 23 23 24 24 23 23 22 21 20 20 21 19 17 16 16 16 15 14 13 13 11 9 8 6 5 7 7 8 7 5 3 3 3 6 9 12 15 16 14 13 11 8 6 6 6 5 5 5 4 3 3 2 2 2 2 2 3 3 3 3 3 4 4 5 6 6 7 7 7 7 7 6 6 6 6 6 6 6 6 6
30 30 29 28 27 25 24 24 24 24 24 22 21 21 22 22 20 18 17 17 17 16 16 15 14 13 11 10 9 7 6 4 6 7 4 3 3 3 7 9 9 13 17 17 15 14 11 9 9 9 8 7 6 7 6 6 6 5 5 4 4 4 4 4 3 4 5 5 5 6 6 7 8 8 8 8 8 8 8 8 9 8 8 8 8
31 30 30 29 28 26 25 24 24 24 24 23 22 23 24 24 22 21 20 19 18 18 17 15 15 15 13 12 12 11 9 6 6 8 5 3 3 2 6 10 10 12 14 16 17 16 14 13 12 12 11 9 8 9 9 9 9 8 8 7 7 6 7 7 7 6 7 7 8 7 7 8 8 8 9 9 9 9 9 10 10 11 10 10 10
31 30 30 30 30 28 26 25 25 25 24 23 23 24 24 24 23 23 23 21 19 18 17 16 15 16 15 14 14 13 12 10 9 9 8 6 5 5 4 6 8 9 10 12 15 16 16 16 15 15 14 13 12 11 11 11 11 11 10 10 9 9 9 9 9 9 9 10 10 10 10 10 10 10 10 9 10 10 10 10 11 11 12 12 11
32 32 32 31 31 30 28 27 26 25 24 24 25 25 24 24 23 23 23 22 20 19 18 17 17 17 16 15 15 14 13 12 11 9 9 8 7 6 4 3 3 5 6 7 8 11 14 16 16 16 16 15 15 15 15 14 13 12 12 13 12 11 11 11 11 12 12 12 12 12 12 13 13 13 12 11 11 11 11 11 12 12 12 13 13
34 33 33 32 32 30 29 28 26 25 24 25 25 25 25 24 23 23 22 22 21 19 18 18 18 17 16 15 15 15 14 13 12 11 10 9 8 8 6 2 1 1 2 4 5 6 9 11 14 15 14 12 12 14 16 16 15 14 14 14 14 13 13 12 13 13 14 14 14 13 13 13 14 14 14 14 13 13 13 13 13 14 14 15 15
35 34 32 32 31 31 29 28 27 25 26 26 26 25 25 24 23 23 22 21 21 19 18 18 18 18 18 15 13 14 14 13 12 12 12 11 10 10 8 4 0 2 2 2 4 6 8 8 10 12 11 8 7 8 10 14 15 14 14 14 15 14 14 14 14 15 15 15 15 14 13 13 14 14 15 15 15 15 15 15 15 16 16 17 17
35 34 32 32 31 31 30 28 27 26 27 28 26 26 25 24 24 24 23 22 21 20 18 17 18 18 18 16 13 12 13 13 12 13 13 12 11 10 10 9 5 1 3 3 3 6 9 9 9 10 11 9 8 7 7 8 10 11 13 14 14 14 14 14 15 16 17 17 16 15 14 14 13 14 14 14 14 15 15 16 16 17 17 17 17
34 34 33 32 31 31 30 29 28 28 29 29 27 25 26 25 25 25 25 23 22 21 19 18 18 18 18 16 14 12 11 12 12 12 12 13 12 10 10 11 9 5 2 2 4 6 7 9 9 8 9 9 8 7 6 5 6 8 10 12 14 14 14 15 17 18 18 19 18 18 17 16 15 15 14 14 14 15 16 16 17 17 17 17 16
34 34 33 32 31 31 31 30 30 30 30 30 28 26 26 27 27 26 26 25 23 22 21 20 19 19 18 17 16 14 12 12 11 11 11 12 12 12 11 11 11 8 7 4 4 7 8 9 10 9 8 7 7 7 8 7 6 7 8 10 12 13 14 15 16 18 18 18 18 18 18 18 18 17 16 16 17 17 18 18 18 17 17 17 17
35 34 33 32 32 32 32 32 31 31 31 31 30 29 29 29 29 29 28 27 25 24 22 22 21 21 20 18 17 16 15 14 12 12 11 11 12 12 12 12 12 11 11 7 3 7 10 10 10 9 8 7 7 8 8 8 8 9 9 10 11 12 13 15 16 16 17 17 17 18 18 18 18 18 18 18 19 19 20 20 20 19 19 18 18
35 35 34 33 33 33 33 33 33 32 32 33 32 31 31 31 31 31 30 29 27 25 23 22 23 23 22 20 18 17 16 15 15 13 13 12 12 13 14 15 14 13 13 11 7 8 12 12 11 10 9 10 10 9 9 9 9 10 11 12 13 13 14 16 16 16 16 17 17 17 17 17 18 18 18 19 19 19 20 20 20 20 20 19 19
36 35 35 34 33 34 34 34 34 34 34 34 34 33 33 32 32 32 32 31 29 26 23 23 24 25 25 24 21 19 18 17 16 15 14 14 13 14 15 16 16 15 14 14 11 11 14 14 13 12 12 11 12 11 11 12 12 12 13 14 14 15 15 16 17 17 17 17 17 17 17 17 17 17 18 19 19 18 18 18 17 18 19 19 20
36 36 35 34 34 34 34 35 35 35 35 36 36 35 35 34 34 33 33 33 31 28 26 25 25 26 27 26 23 21 19 19 18 17 16 16 16 15 16 16 17 18 17 16 14 12 13 16 16 15 13 13 14 14 13 14 14 15 16 16 16 17 17 17 18 19 18 18 18 17 16 16 16 17 18 18 18 17 17 16 15 16 18 19 19
36 36 36 35 34 35 35 36 36 36 37 37 38 37 37 36 35 34 34 34 33 31 30 29 27 27 27 27 25 23 22 21 21 20 19 19 18 17 17 17 18 19 19 18 16 14 14 16 17 17 16 15 16 15 14 15 17 18 19 19 19 19 19 19 19 19 19 20 19 18 17 17 17 17 18 18 18 16 14 14 15 17 19 20 20
35 36 35 35 35 35 36 36 37 38 39 39 39 39 39 38 37 35 34 35 34 33 33 32 30 29 29 28 27 25 24 23 22 21 19 19 19 19 18 18 19 20 20 19 19 17 16 16 17 19 18 17 17 17 16 18 19 20 20 21 22 22 22 21 20 20 20 20 19 18 17 17 18 18 18 19 18 15 14 15 17 19 20 21 22
35 35 34 35 35 36 37 38 39 40 40 41 41 40 40 39 38 37 36 35 35 35 34 33 32 31 31 30 29 26 25 24 23 21 19 19 19 19 19 19 19 20 21 21 20 19 19 19 20 20 19 19 19 19 19 19 20 20 20 21 23 23 23 22 22 21 20 18 17 16 16 17 18 18 19 19 18 16 16 18 20 21 22 23 24
35 34 35 36 36 38 39 39 40 41 41 42 42 42 41 40 39 38 37 36 36 35 35 34 33 33 32 32 30 26 25 25 24 22 20 19 19 19 19 20 20 21 22 22 21 20 20 21 22 22 21 21 21 21 20 18 19 20 21 23 23 22 21 22 22 20 18 16 16 16 17 18 19 19 19 19 19 19 20 21 23 24 25 25 25
36 35 35 37 38 39 40 40 41 42 42 42 43 42 41 40 40 39 37 37 36 36 35 34 34 34 34 33 31 28 27 26 25 23 21 20 20 20 20 21 22 22 23 23 22 21 21 21 21 22 22 22 21 20 19 18 17 18 18 20 22 22 21 21 21 20 19 18 18 19 19 20 20 20 19 18 19 20 23 25 25 25 25 25 25
37 37 37 38 39 40 40 41 41 41 41 43 43 42 41 40 41 39 38 37 37 35 34 34 33 33 33 34 33 32 30 27 25 24 22 21 20 20 20 21 22 23 23 24 23 21 21 21 21 22 22 21 19 19 19 18 16 17 17 16 18 21 21 20 19 20 21 20 21 21 20 19 19 19 18 19 20 23 24 23 22 21 21 20 19
38 38 38 39 39 39 40 41 41 40 41 43 44 44 42 41 41 40 38 37 36 35 31 28 28 29 31 33 34 33 31 28 25 22 20 19 20 20 20 20 21 22 22 23 22 22 21 19 20 21 20 19 20 20 20 18 17 18 18 16 16 19 20 20 20 20 19 19 19 19 18 17 17 19 21 23 25 25 21 18 16 17 17 16 15
38 39 39 38 38 39 39 40 40 40 42 44 45 45 44 43 42 40 37 36 35 31 27 26 28 30 33 35 34 33 31 27 24 22 20 19 19 19 19 19 20 21 21 22 22 21 19 18 20 19 16 18 21 19 17 18 18 17 17 15 16 17 17 17 19 19 18 17 16 16 17 17 19 23 26 27 27 22 17 15 15 16 16 15 15
39 39 39 39 39 39 39 39 40 40 42 44 45 45 45 44 43 40 37 35 33 29 28 31 33 32 33 35 34 32 30 27 25 23 20 19 18 18 19 20 20 20 20 20 20 20 19 17 18 16 14 16 19 18 16 16 16 15 14 14 14 16 15 13 14 17 18 16 13 15 19 21 22 24 25 24 21 17 15 16 17 17 17 16 16
40 39 39 40 40 40 39 38 39 41 43 45 45 45 45 46 45 40 36 35 33 33 33 34 33 31 30 32 32 32 32 29 26 24 20 18 18 19 19 19 19 19 18 18 19 19 16 14 16 16 15 15 16 17 15 14 14 14 14 15 15 15 15 13 13 16 17 17 16 16 20 21 20 20 20 17 15 15 15 16 16 17 17 18 18
39 39 40 41 41 41 39 39 40 41 43 44 45 45 45 47 44 38 35 36 36 36 35 33 32 32 32 31 31 32 32 29 26 23 20 19 19 18 18 18 18 17 17 17 18 17 15 14 17 17 14 13 14 16 15 13 14 15 15 15 15 14 14 14 15 17 17 18 18 17 18 19 16 15 15 14 13 13 13 15 16 17 18 19 20
39 40 41 41 41 41 41 41 41 41 43 44 45 45 45 45 42 37 37 38 36 33 32 32 32 33 33 31 31 32 31 28 24 22 21 21 20 18 18 17 17 16 17 18 17 16 15 15 16 15 13 13 14 15 14 11 12 12 13 14 14 14 14 14 15 17 17 17 16 13 13 15 15 14 14 13 12 13 15 16 19 20 21 23 23
41 41 41 41 41 41 41 41 40 41 43 44 44 45 44 42 40 37 35 36 36 33 32 32 31 32 33 32 31 31 29 26 23 22 22 22 20 18 18 17 17 17 17 17 16 14 13 13 13 13 13 14 13 11 9 9 10 11 12 13 14 14 15 15 16 17 16 14 13 9 9 13 14 14 15 15 15 17 19 20 22 22 22 22 21
40 40 40 40 41 40 40 41 41 41 42 43 43 44 43 40 39 36 34 37 41 39 34 32 32 35 35 31 29 28 26 24 22 21 21 21 19 19 18 16 16 17 16 14 13 11 11 10 11 12 12 10 8 7 9 11 13 13 12 12 12 11 12 13 14 15 14 13 12 9 10 12 13 14 18 18 18 19 21 21 21 19 17 16 16
39 40 40 39 40 41 41 41 41 41 41 41 42 43 41 38 37 37 37 40 41 37 33 34 36 37 36 30 26 25 24 22 22 21 20 20 20 18 17 16 16 15 13 12 11 10 10 10 10 10 9 8 8 10 13 13 12 11 9 9 8 8 9 9 9 11 13 13 12 7 9 11 13 15 18 19 18 19 20 20 17 15 15 17 18
41 41 39 38 38 41 42 42 42 42 40 40 41 40 39 38 38 39 39 38 36 35 35 36 35 35 34 29 25 24 23 21 21 20 20 20 20 19 18 17 16 14 13 12 11 10 10 10 10 10 10 10 12 12 12 10 9 8 7 7 6 6 7 7 8 10 12 14 11 6 7 11 14 15 17 18 18 19 19 17 17 17 18 19 20
40 38 37 37 37 39 40 41 42 42 39 38 39 38 36 37 39 41 39 35 34 36 38 36 33 32 30 26 23 21 20 19 20 20 21 20 19 17 17 16 16 16 15 12 11 10 10 9 9 10 10 10 10 8 6 6 7 7 7 6 5 6 8 10 11 10 8 8 10 7 9 13 15 15 15 13 11 14 18 18 19 21 21 20 21
Wind_Direction
224 223 227 232 236 237 235 240 234 219 219 215 210 215 221 223 217 210 205 204 208 211 217 220 183 238 284 280 253 250 252 249 246 247 239 216 208 215 219 219 220 217 213 212 211 206 206 207 209 209 206 205 205 203 203 203 203 203 202 202 204 201 199 201 203 204 206 208 211 213 215 217 220 224 229 233 235 233 230 234 236 238 240 242 246
225 225 228 233 238 238 233 237 233 220 220 218 217 224 224 224 231 224 214 216 222 222 236 250 228 248 263 261 254 246 239 249 252 245 241 228 214 214 222 226 223 222 219 217 216 211 210 210 209 211 211 210 209 207 206 206 206 207 206 206 207 206 205 206 207 208 210 213 215 219 222 224 227 230 234 239 242 244 242 242 244 247 250 252 254
228 230 232 235 240 240 233 232 230 222 221 221 225 234 231 231 239 234 222 223 230 230 238 253 268 262 264 251 234 231 235 244 258 254 239 225 218 216 221 229 227 226 225 223 221 216 214 216 215 215 216 215 214 213 213 214 213 210 209 211 210 210 211 211 213 214 216 219 220 223 225 227 231 233 236 241 245 248 248 247 247 249 252 256 259
231 234 236 239 241 240 233 228 227 222 220 224 235 239 234 231 226 220 221 231 236 234 237 242 263 300 321 226 209 218 230 222 245 264 232 215 214 215 221 231 230 227 227 225 225 222 217 221 223 223 225 223 218 217 220 222 222 217 214 215 213 213 215 214 216 219 221 223 225 227 230 231 232 234 237 243 248 251 254 253 252 252 252 254 260
232 236 242 243 242 237 230 230 227 221 223 229 237 237 233 234 224 217 222 233 235 236 243 235 226 261 333 205 199 215 227 210 228 244 211 202 206 207 213 223 226 227 226 222 225 226 222 226 228 225 229 230 223 220 220 223 224 223 223 221 219 219 221 220 219 220 221 224 226 228 231 233 235 236 239 243 248 253 256 258 259 258 257 257 260
233 239 243 241 236 231 231 235 226 219 227 233 239 240 244 248 236 225 228 237 238 242 249 236 221 242 252 173 180 203 224 215 213 205 187 188 198 207 210 213 216 222 226 221 224 227 226 230 234 229 230 235 233 226 223 224 224 223 226 227 225 225 226 225 224 224 224 224 225 228 231 233 238 242 244 247 250 254 257 260 260 261 261 261 262
234 238 237 232 228 229 234 235 225 221 227 233 242 247 254 257 245 234 234 238 240 244 249 241 231 243 235 134 153 155 207 211 207 196 178 179 196 214 216 215 214 216 224 228 227 228 226 231 240 240 238 240 241 235 229 229 229 225 227 230 228 229 230 230 229 229 230 231 231 235 238 237 237 239 240 241 244 249 255 259 260 261 262 261 261
233 232 229 227 227 231 236 231 224 225 227 232 238 246 256 253 243 236 233 235 241 247 249 251 236 237 258 129 140 142 191 200 201 188 166 160 198 211 211 214 210 212 218 225 233 231 225 229 240 244 238 239 242 241 234 233 236 234 232 232 231 232 234 233 233 232 233 234 235 238 242 243 243 240 237 236 235 240 247 252 254 256 258 259 261
230 228 227 231 232 236 237 228 224 226 228 232 235 244 253 247 245 239 236 241 244 249 257 261 220 222 250 246 160 181 181 181 180 172 160 147 150 179 196 204 201 204 207 213 225 232 232 229 237 244 239 238 239 240 238 238 241 239 236 234 233 236 239 239 237 236 237 236 237 240 244 247 250 248 246 245 243 244 249 253 252 251 252 254 256
229 228 229 233 237 239 236 227 226 230 231 232 235 243 249 245 247 241 240 244 244 254 265 256 209 209 247 256 224 205 176 170 172 166 169 161 140 137 161 185 189 190 195 209 223 232 237 229 231 239 236 234 233 236 238 240 240 238 239 238 235 239 244 246 246 246 246 244 244 247 250 252 253 254 253 254 254 253 255 257 256 254 254 255 255
229 229 230 233 236 238 236 229 229 234 232 230 232 239 245 241 239 238 237 236 243 255 251 234 214 203 229 226 215 207 179 175 187 176 181 174 145 131 134 156 169 175 187 210 228 237 241 231 230 228 228 229 228 232 235 240 242 239 240 239 236 241 245 247 251 255 255 254 255 255 254 254 253 255 257 258 258 259 258 258 258 259 261 262 262
229 230 231 234 237 237 235 230 231 233 230 228 230 240 246 241 236 233 228 233 248 242 217 245 232 192 179 180 193 203 187 183 185 170 180 179 156 142 141 144 148 149 162 186 212 230 237 236 237 227 222 223 219 223 228 238 246 246 245 241 237 242 246 246 249 255 256 258 261 262 261 259 256 257 261 262 261 263 262 260 260 263 264 265 265
228 229 231 234 235 235 232 228 229 230 228 228 233 242 244 241 235 226 225 241 244 220 225 260 207 171 162 173 195 207 197 174 162 143 169 178 167 155 159 152 142 140 141 144 183 212 214 213 219 217 209 210 212 216 220 231 242 247 250 250 245 245 250 252 250 249 251 254 257 259 264 266 265 263 265 267 266 266 265 263 265 267 267 266 267
229 229 231 232 231 230 226 225 226 225 226 229 234 240 236 231 224 217 225 238 225 211 241 243 183 172 161 163 214 218 200 153 142 128 160 175 177 176 179 171 161 160 144 108 68 165 168 155 147 149 167 182 199 213 221 232 240 242 246 255 266 262 256 251 245 241 247 256 258 257 262 267 268 267 268 269 268 266 265 265 267 269 270 269 269
232 231 231 231 230 227 223 223 225 223 224 226 230 232 229 222 216 216 223 221 214 218 245 232 193 168 139 120 297 203 210 142 133 146 171 180 185 189 190 184 178 176 155 113 76 110 139 140 125 124 141 149 172 197 215 222 226 235 249 263 284 290 275 252 247 249 255 269 274 272 271 272 267 264 265 265 264 263 264 265 267 269 272 271 270
233 232 231 230 229 227 223 223 225 225 224 225 227 230 227 218 213 216 219 215 216 224 233 224 209 185 138 102 6 98 226 261 120 152 183 186 189 193 195 192 186 182 170 135 106 104 117 139 142 166 227 280 233 208 185 184 184 172 193 319 320 317 303 285 280 279 279 280 283 276 264 258 249 244 248 254 260 263 266 268 268 269 272 272 272
232 231 230 230 229 227 225 225 227 225 223 226 231 235 231 219 213 214 215 215 219 228 229 218 218 218 195 152 93 82 236 221 93 121 180 184 189 194 196 196 193 188 181 163 141 125 114 127 123 73 356 322 289 249 198 149 129 127 73 18 0 352 343 328 308 297 298 296 294 285 260 250 246 241 239 248 260 266 270 272 270 271 273 275 276
231 228 228 230 229 228 227 227 228 225 223 229 235 238 233 219 214 216 217 220 224 231 230 215 218 228 221 209 200 219 212 168 109 115 176 184 193 196 199 200 199 197 192 185 170 154 138 138 138 96 6 320 309 313 342 16 130 117 25 20 18 15 13 9 3 356 355 347 346 351 344 330 298 287 278 261 269 273 274 277 278 281 282 282 281
229 226 228 230 229 229 230 229 229 227 228 234 237 238 234 222 216 218 219 223 227 232 231 219 216 222 223 223 232 241 216 182 165 157 161 196 202 198 204 205 203 204 204 200 193 184 177 171 181 212 253 285 299 320 5 4 355 0 11 12 11 13 9 3 359 359 4 0 355 353 349 349 341 331 329 312 304 299 295 295 293 294 294 293 291
228 227 229 230 229 230 231 230 229 229 233 237 238 238 232 222 217 219 222 225 228 232 233 224 218 216 212 214 229 239 216 196 187 173 146 176 200 195 204 209 210 212 211 209 205 202 205 206 215 237 259 272 276 276 335 5 0 7 18 7 358 357 354 355 359 9 10 2 356 352 346 342 337 330 325 318 314 311 308 308 308 310 309 307 304
229 229 230 229 229 230 231 230 229 230 233 237 238 235 226 219 217 217 220 226 230 235 237 229 221 216 210 210 212 207 203 200 192 178 149 165 203 203 195 200 215 220 217 217 214 212 218 228 233 240 256 272 273 270 273 285 305 306 304 313 320 326 334 343 353 355 356 354 349 346 343 339 334 327 323 321 318 316 314 312 312 314 314 315 315
229 229 229 230 229 229 230 229 229 231 232 236 235 228 219 216 217 218 221 228 232 236 238 232 226 222 218 215 208 195 194 197 188 177 152 155 186 218 201 193 209 221 220 220 219 218 223 231 238 242 251 264 271 272 271 274 280 286 291 295 296 303 309 307 307 314 323 328 327 327 329 330 328 321 315 313 313 313 312 311 311 311 312 314 315
229 227 228 228 228 228 229 228 229 231 232 235 230 220 214 216 219 222 226 230 231 232 233 231 227 223 223 224 219 211 206 209 204 194 178 155 153 194 209 206 216 223 222 224 224 225 226 229 236 242 247 255 265 270 274 277 278 281 286 289 291 295 299 299 296 298 303 308 310 308 310 317 322 319 310 302 302 305 306 306 306 304 305 306 307
228 227 226 226 225 226 227 227 228 230 232 232 224 215 214 217 221 226 228 229 228 227 228 228 226 223 224 227 226 225 225 227 226 216 215 213 194 188 187 196 219 227 227 230 231 231 233 236 241 244 244 248 256 264 270 275 277 279 279 278 283 287 290 294 295 297 299 303 305 304 302 305 310 314 310 299 294 296 300 301 301 300 299 299 299
224 224 225 223 223 224 225 225 226 229 230 226 219 215 215 218 222 225 227 227 227 227 229 229 227 226 227 228 228 232 234 232 230 229 229 224 207 196 182 174 224 221 216 229 236 238 241 245 249 251 251 252 257 262 264 269 274 277 276 274 277 281 285 290 295 300 303 303 303 300 298 298 300 305 308 304 296 292 294 297 298 298 297 297 297
221 223 224 222 221 223 225 225 225 228 227 221 218 217 218 220 223 225 226 229 229 230 231 228 226 226 228 232 233 233 232 228 228 228 229 229 218 202 185 160 314 252 195 228 238 242 245 246 248 253 259 263 265 262 259 261 267 273 274 273 275 277 280 285 293 300 304 304 303 299 296 295 296 299 303 304 300 295 294 295 295 296 295 295 296
222 223 223 220 220 222 224 225 225 226 224 218 218 219 220 222 226 227 229 231 231 230 227 223 224 225 226 232 234 229 225 225 227 227 230 240 239 223 201 174 220 327 325 274 250 245 247 246 245 247 253 269 285 279 265 257 259 268 271 271 275 278 279 282 289 295 297 298 297 294 293 293 295 297 300 301 301 298 297 296 295 295 294 293 292
223 222 221 219 220 221 223 224 224 224 221 217 218 220 220 223 226 227 229 230 230 228 223 219 221 222 225 230 229 227 228 230 231 229 230 240 245 238 220 198 188 243 319 310 275 254 253 247 237 236 242 257 280 293 288 267 258 264 270 273 279 283 283 285 289 291 291 292 290 287 284 285 288 291 294 296 297 297 297 298 297 296 294 294 294
222 221 221 220 220 221 223 223 223 222 220 217 218 221 222 223 224 226 228 229 229 226 222 220 219 220 225 229 228 229 232 232 231 230 234 239 238 237 232 218 205 191 193 280 269 249 247 240 231 230 238 250 266 281 291 290 277 271 273 276 281 284 285 287 290 291 291 290 288 284 280 279 280 282 285 287 290 293 294 296 298 297 296 294 296
221 221 221 220 219 220 222 223 222 221 220 218 219 222 224 224 224 227 228 227 228 225 222 221 220 221 226 231 232 231 229 228 228 230 235 238 237 236 234 227 223 215 202 210 257 255 244 241 243 245 249 257 271 281 285 288 286 279 277 276 277 281 284 286 288 290 292 293 292 289 285 282 282 283 285 286 286 288 289 290 292 294 295 295 295
222 222 222 220 218 218 220 221 221 220 220 219 219 222 225 225 225 228 228 227 227 224 222 223 223 223 226 231 232 228 225 227 229 230 232 233 237 238 233 228 230 234 225 207 223 262 256 254 256 256 262 277 284 286 289 291 290 285 282 282 283 285 287 288 290 293 296 296 294 292 290 288 288 289 290 290 289 287 287 286 286 286 288 292 295
224 223 223 220 218 217 218 219 219 219 220 220 220 223 225 226 227 228 227 226 225 224 224 226 226 224 225 228 228 224 225 229 230 231 233 233 237 237 234 233 232 235 233 216 211 254 264 264 265 264 272 285 287 286 291 296 297 295 293 293 292 292 292 293 296 299 303 303 298 292 289 290 290 291 292 293 292 290 288 287 286 284 286 289 294
224 223 222 220 218 218 217 217 218 219 220 220 221 224 225 226 226 226 226 224 223 224 224 224 225 224 224 226 226 225 228 233 234 235 236 235 237 235 232 235 235 233 231 223 222 247 266 268 267 270 277 284 285 286 293 296 299 302 301 298 295 294 296 299 301 303 306 308 305 298 293 291 292 295 297 296 293 291 291 291 291 292 293 295 298
224 223 221 219 217 217 217 217 217 218 220 220 221 223 224 225 224 224 224 223 221 222 222 221 220 220 221 224 226 226 230 235 237 239 239 236 235 235 233 237 240 238 234 233 231 239 259 269 272 276 278 281 284 289 296 300 303 306 304 302 301 300 301 304 305 305 305 306 306 304 300 297 298 302 304 303 299 293 292 294 298 302 305 306 306
222 222 220 218 216 216 217 217 217 218 220 221 221 222 223 223 223 223 223 221 220 221 222 221 220 220 222 224 226 227 230 235 239 240 239 235 235 236 238 243 245 243 241 242 242 240 251 265 275 278 277 280 286 291 298 301 304 307 307 308 310 309 308 308 307 304 303 304 304 304 302 301 302 305 306 307 306 301 297 300 303 305 306 307 306
220 220 219 217 215 215 216 216 216 217 219 220 221 222 223 223 224 223 222 221 221 223 224 224 223 224 225 227 229 229 231 235 240 241 237 233 233 236 242 248 248 245 245 247 250 250 251 259 270 275 276 280 286 292 297 298 301 306 309 311 314 314 315 315 313 309 306 305 303 300 299 300 301 302 303 303 303 302 301 302 302 303 304 304 303
218 218 216 215 214 215 215 216 217 218 219 220 221 221 222 223 224 224 223 223 224 225 226 227 227 227 228 230 231 231 232 235 239 242 241 237 236 238 244 250 250 247 248 251 254 254 252 256 263 269 273 275 282 290 295 297 302 306 307 309 313 316 318 318 316 313 310 306 303 299 300 301 300 299 299 299 298 298 298 299 301 302 302 301 299
215 216 215 214 214 215 217 218 218 219 219 220 221 221 222 222 223 224 224 224 226 227 228 230 231 231 231 232 233 232 232 235 239 243 245 244 242 242 244 247 250 251 251 253 254 253 254 257 261 266 269 272 279 287 292 296 302 304 307 311 314 317 319 318 315 312 310 308 305 306 307 307 304 300 297 296 295 296 299 302 303 301 298 295 292
213 214 214 215 215 216 217 218 219 219 219 219 221 221 220 221 222 223 223 224 227 228 230 233 234 234 235 236 236 235 234 236 240 244 247 246 244 244 245 245 247 251 253 254 254 254 256 258 260 264 268 273 279 284 288 294 299 303 309 313 313 316 319 317 313 310 309 309 308 309 309 307 305 302 300 297 297 301 304 305 302 299 296 293 291
211 212 214 215 216 217 218 219 219 219 218 219 220 220 219 219 221 222 223 224 227 229 231 235 236 237 240 241 239 239 239 241 245 248 250 248 244 245 248 247 247 250 253 254 253 253 254 254 257 262 268 275 281 286 292 298 304 309 315 313 306 310 315 313 308 307 307 308 308 307 307 307 306 306 304 302 304 307 307 305 302 299 299 300 300
210 212 214 215 215 216 217 218 219 219 219 220 221 219 218 218 220 222 222 224 226 228 230 234 237 240 245 246 244 241 242 245 249 251 251 250 248 250 253 252 250 251 253 254 253 251 249 250 254 261 269 278 285 291 298 305 311 313 314 309 300 304 310 308 305 306 306 306 307 307 308 310 310 309 308 307 308 310 310 308 306 305 307 310 308
210 211 213 214 214 216 217 217 218 218 219 222 222 221 219 218 219 220 220 223 226 225 225 231 235 238 243 247 248 246 246 248 249 249 249 251 253 255 257 257 255 255 253 251 249 247 246 248 255 262 271 279 286 292 298 305 308 307 307 305 302 304 306 302 302 305 306 307 307 307 309 311 308 305 306 306 306 309 312 311 308 309 311 309 304
209 210 210 211 213 215 216 217 216 217 221 223 223 222 221 220 219 218 218 221 223 222 223 229 233 236 242 247 250 250 250 248 247 247 249 252 254 254 255 257 259 260 255 249 247 246 244 250 261 268 270 275 285 293 296 299 303 303 305 306 303 301 298 293 294 301 309 312 307 301 304 307 306 304 305 305 306 310 313 309 307 308 309 307 304
208 208 208 210 212 214 215 216 216 219 222 225 225 224 222 221 220 216 214 217 222 224 226 228 231 236 243 248 249 251 251 249 248 250 250 250 250 251 255 257 258 258 256 254 254 252 250 260 270 271 267 272 286 293 294 297 301 303 306 305 301 298 294 287 284 291 307 313 305 297 300 307 311 310 310 313 314 314 312 309 309 309 308 307 306
207 206 208 209 211 212 213 215 217 220 224 226 226 226 224 223 218 210 208 217 224 227 228 229 231 236 242 245 246 250 251 250 249 248 248 247 249 254 259 259 255 251 251 254 255 256 263 270 268 268 271 276 284 289 293 297 300 301 303 302 302 299 293 286 284 291 306 310 304 300 301 309 318 315 313 318 318 313 310 309 309 307 304 303 303
206 207 207 208 209 211 212 215 217 221 224 226 227 227 227 224 215 205 205 216 226 229 228 230 233 238 242 243 243 248 251 249 246 244 244 247 252 258 260 254 249 246 246 248 251 258 267 266 261 266 278 282 283 288 293 296 297 299 298 297 299 298 291 288 290 298 307 311 310 305 299 311 322 313 309 319 317 309 308 306 304 303 300 298 297
208 208 207 207 208 209 212 214 217 220 224 226 227 228 228 223 213 204 202 212 225 229 228 232 237 240 244 245 244 247 249 248 246 245 245 249 253 255 251 246 244 243 244 246 251 258 259 255 259 272 282 285 287 290 294 300 302 301 296 293 294 293 291 293 298 304 311 317 320 307 287 309 324 311 306 315 312 305 307 305 304 303 300 298 299
209 210 209 207 207 208 211 213 216 220 224 226 227 229 228 220 210 201 199 211 223 225 226 234 239 240 244 246 246 248 248 248 250 248 248 250 248 243 241 242 244 242 242 248 256 261 261 263 274 283 284 284 284 288 298 304 304 300 293 290 293 295 298 303 307 313 320 325 326 305 275 295 317 309 304 311 310 306 307 308 308 308 305 306 311
209 210 210 207 206 208 210 212 215 219 223 226 227 228 226 217 204 197 201 212 219 221 227 236 236 234 237 242 246 250 251 252 253 250 246 243 238 237 244 246 243 238 240 250 259 263 269 277 282 282 278 275 279 290 299 300 296 290 287 294 305 311 310 307 303 310 318 322 324 304 263 279 304 305 303 309 311 308 310 314 316 317 317 319 319
209 211 209 207 207 209 210 211 214 218 222 225 227 227 224 214 201 197 204 212 214 219 229 235 233 229 231 237 244 250 252 252 252 246 240 237 234 238 246 244 236 235 241 251 258 263 270 276 278 275 273 279 288 295 297 292 280 276 289 306 314 313 312 302 286 293 307 313 317 296 252 277 301 305 303 308 309 307 311 318 322 323 323 322 320
212 212 208 207 208 209 210 212 215 218 220 223 226 225 221 214 202 197 204 211 213 218 224 227 228 228 230 236 243 248 249 248 247 241 236 235 235 239 243 239 237 243 249 252 256 260 265 269 271 276 282 291 297 296 289 282 280 288 303 311 306 309 313 304 294 293 294 303 311 296 269 285 302 306 304 303 302 307 313 316 319 322 323 323 321